Location: Alafon
(8.4500°N, 4.2333°E)
Time: 18:25:47
(UTC+00:00)

deb Explorer IX - Pass Details

Date: 01 August 2021
Orbit: 545 x 1091 km, 38.8° (Epoch: 20 September)

Event Time Altitude Azimuth Distance (km) Brightness Sun altitude
Rises 10:09:27 0° 246° (WSW) 2,692 ? 63.9°
Reaches altitude 10° 10:11:46 10° 256° (WSW) 1,814 ? 64.5°
Maximum altitude 10:15:33 35° 323° (NW) 923 ? 65.3°
Drops below altitude 10° 10:19:38 10° 30° (NNE) 1,958 ? 66.2°
Sets 10:22:15 0° 39° (NE) 2,941 ? 66.8°
